FW2000 Weather Reports


Display with metric or nautical units.
time (UTC)temp
F
wind
direction
speed
MPH
gust
MPH
rain 1hr
in
rain 24hr
in
rain mn
in
humidity
%
barometer
mb
20260505014601 48 290 1.0 3.0 0.00 0.32 0.32 89 1016.4
20260505014055 48 278 1.0 4.0 0.00 0.32 0.32 89 1016.3
20260505013554 49 288 1.0 4.0 0.00 0.32 0.32 89 1016.4
20260505013058 49 277 0.0 4.0 0.00 0.32 0.32 89 1016.4
20260505012555 49 288 0.0 5.0 0.00 0.32 0.32 88 1016.5
20260505012054 49 288 1.0 5.0 0.00 0.32 0.32 88 1016.6
20260505011554 49 290 1.0 3.0 0.00 0.32 0.32 88 1016.6
20260505011053 49 292 0.0 3.0 0.00 0.32 0.32 88 1016.6
20260505010554 49 290 1.0 3.0 0.00 0.32 0.32 88 1016.6
20260505010115 49 290 1.0 3.0 0.00 0.32 0.32 88 1016.6
20260505005553 50 290 0.0 4.0 0.00 0.32 0.32 87 1016.6
20260505005054 50 290 1.0 4.0 0.00 0.32 0.32 87 1016.7
20260505004554 50 290 0.0 3.0 0.00 0.32 0.32 88 1016.7
20260505004053 50 290 0.0 3.0 0.00 0.32 0.32 87 1016.7
20260505003554 50 290 1.0 3.0 0.00 0.32 0.32 87 1016.8
20260505003055 50 290 1.0 3.0 0.00 0.32 0.32 87 1016.6
20260505002552 50 290 0.0 3.0 0.00 0.32 0.32 87 1016.6
20260505002052 50 290 1.0 3.0 0.00 0.32 0.32 87 1016.6
20260505001552 51 296 0.0 3.0 0.00 0.32 0.32 87 1016.6
20260505001053 51 309 0.0 3.0 0.00 0.32 0.32 87 1016.6
20260505000549 51 309 1.0 3.0 0.00 0.32 0.32 87 1016.6
20260505000049 51 273 0.0 2.0 0.00 0.32 0.32 88 1016.7
20260504235548 50 264 0.0 2.0 0.00 0.32 0.32 88 1016.6
20260504235048 50 264 0.0 1.0 0.00 0.32 0.32 89 1016.7
20260504234546 50 260 0.0 2.0 0.00 0.32 0.32 89 1016.7
20260504234046 50 260 0.0 1.0 0.00 0.32 0.32 90 1016.7
20260504233546 50 260 0.0 1.0 0.00 0.32 0.32 90 1016.7
20260504233046 49 260 0.0 2.0 0.00 0.32 0.32 90 1016.8
20260504232547 49 260 0.0 3.0 0.00 0.32 0.32 90 1016.9
20260504232044 49 262 0.0 2.0 0.00 0.32 0.32 90 1016.8
20260504231547 49 262 0.0 3.0 0.00 0.32 0.32 90 1016.9
20260504231044 49 261 1.0 3.0 0.00 0.32 0.32 90 1016.9
20260504230547 49 262 0.0 1.0 0.00 0.32 0.32 91 1016.9
20260504230047 49 262 0.0 2.0 0.00 0.32 0.32 91 1016.9
20260504225544 48 262 1.0 2.0 0.00 0.32 0.32 91 1016.8
20260504225043 48 263 1.0 2.0 0.00 0.32 0.32 91 1016.8
20260504224544 48 263 0.0 2.0 0.00 0.32 0.32 91 1016.7
20260504224043 48 263 0.0 2.0 0.00 0.32 0.32 91 1016.9
20260504223546 48 222 0.0 0.0 0.00 0.32 0.32 91 1016.9
20260504223057 47 222 0.0 0.0 0.00 0.32 0.32 91 1016.9
20260504222545 47 222 0.0 0.0 0.00 0.32 0.32 91 1017.0
20260504222043 47 222 0.0 0.0 0.00 0.32 0.32 91 1017.1
20260504221555 47 222 0.0 1.0 0.00 0.32 0.32 91 1017.1
20260504221043 47 222 0.0 1.0 0.01 0.32 0.32 91 1017.1
20260504220541 46 222 0.0 1.0 0.01 0.32 0.32 91 1017.2
20260504220043 46 222 0.0 1.0 0.01 0.32 0.32 91 1017.2
20260504215541 46 222 0.0 1.0 0.02 0.32 0.32 91 1017.3
20260504215043 46 222 0.0 0.0 0.02 0.32 0.32 91 1017.2
20260504214540 46 222 0.0 0.0 0.03 0.32 0.32 91 1017.3
20260504214041 46 222 0.0 0.0 0.03 0.32 0.32 91 1017.3
20260504213539 46 222 0.0 2.0 0.03 0.32 0.32 91 1017.2
20260504213056 46 222 0.0 2.0 0.03 0.32 0.32 91 1017.2
20260504212539 46 222 1.0 4.0 0.04 0.32 0.32 91 1017.1
20260504212042 46 228 1.0 4.0 0.04 0.32 0.32 91 1017.2
20260504211541 46 230 1.0 4.0 0.04 0.32 0.32 91 1017.1
20260504211038 46 261 0.0 2.0 0.03 0.31 0.31 91 1017.2
20260504210538 46 261 0.0 3.0 0.03 0.31 0.31 91 1017.2
20260504210037 46 259 0.0 3.0 0.03 0.31 0.31 91 1017.1
20260504205540 46 263 0.0 2.0 0.02 0.30 0.30 91 1017.1
20260504205035 46 265 0.0 2.0 0.02 0.30 0.30 91 1017.0
20260504204536 46 270 0.0 4.0 0.01 0.28 0.28 91 1016.9
20260504204035 46 269 1.0 4.0 0.01 0.28 0.28 91 1017.0
20260504203535 46 212 0.0 4.0 0.01 0.28 0.28 91 1016.9
20260504203045 46 236 0.0 4.0 0.01 0.28 0.28 91 1016.8
20260504202534 46 246 1.0 2.0 0.00 0.28 0.28 91 1016.8
20260504202034 46 246 0.0 5.0 0.00 0.28 0.28 91 1016.7
20260504201533 46 262 2.0 7.0 0.00 0.28 0.28 91 1016.7
20260504201033 46 237 1.0 7.0 0.00 0.28 0.28 91 1016.7
20260504200533 46 262 0.0 3.0 0.00 0.28 0.28 91 1016.8
20260504200033 46 247 1.0 3.0 0.00 0.28 0.28 91 1016.8
20260504195532 46 236 1.0 8.0 0.00 0.28 0.28 91 1016.8
20260504195031 46 246 2.0 8.0 0.00 0.28 0.28 91 1016.8
20260504194539 47 265 2.0 6.0 0.00 0.28 0.28 91 1016.6
20260504194031 47 236 1.0 6.0 0.00 0.28 0.28 91 1016.6
20260504193534 47 234 1.0 4.0 0.00 0.28 0.28 91 1016.6
20260504193031 47 238 1.0 4.0 0.00 0.28 0.28 91 1016.6
20260504192530 47 238 1.0 3.0 0.00 0.28 0.28 91 1016.6
20260504192032 47 259 0.0 6.0 0.00 0.28 0.28 91 1016.6
20260504191537 47 299 2.0 9.0 0.00 0.28 0.28 91 1016.4
20260504191029 47 271 2.0 8.0 0.00 0.28 0.28 91 1016.4
20260504190529 47 257 3.0 8.0 0.00 0.28 0.28 91 1016.4
20260504190029 47 292 2.0 6.0 0.00 0.28 0.28 91 1016.3
20260504185530 47 257 2.0 5.0 0.00 0.28 0.28 91 1016.3
20260504185032 47 265 1.0 4.0 0.00 0.28 0.28 90 1016.3
20260504184530 47 290 1.0 7.0 0.00 0.28 0.28 90 1016.3
20260504184033 47 243 3.0 8.0 0.00 0.28 0.28 90 1016.3
20260504183528 47 267 1.0 6.0 0.00 0.28 0.28 90 1016.4
20260504183029 48 290 1.0 8.0 0.00 0.28 0.28 90 1016.4
20260504182527 48 291 3.0 8.0 0.00 0.28 0.28 89 1016.4
20260504182027 49 279 2.0 7.0 0.00 0.28 0.28 89 1016.5
20260504181527 49 302 1.0 5.0 0.00 0.28 0.28 90 1016.4
20260504181029 49 292 2.0 5.0 0.00 0.28 0.28 90 1016.5
20260504180526 49 276 1.0 6.0 0.00 0.28 0.28 90 1016.4
20260504180025 49 329 1.0 3.0 0.00 0.28 0.28 90 1016.4
20260504175528 49 330 0.0 3.0 0.00 0.28 0.28 90 1016.3
20260504175025 49 330 0.0 3.0 0.00 0.28 0.28 91 1016.3
20260504174524 50 328 0.0 3.0 0.00 0.28 0.28 91 1016.2
20260504174023 49 324 0.0 3.0 0.00 0.28 0.28 91 1016.1
20260504173523 49 228 1.0 3.0 0.01 0.28 0.28 91 1016.0
20260504173021 49 229 1.0 4.0 0.01 0.28 0.28 92 1015.9
20260504172521 48 175 0.0 2.0 0.01 0.28 0.28 92 1015.9
20260504172020 48 175 0.0 2.0 0.01 0.28 0.28 92 1015.8
20260504171529 47 175 0.0 2.0 0.01 0.28 0.28 92 1015.7
20260504171019 47 176 1.0 2.0 0.01 0.28 0.28 92 1015.7
20260504170518 46 176 0.0 0.0 0.01 0.28 0.28 92 1015.7
20260504151008 43 234 0.0 2.0 0.03 0.27 0.27 92 1015.6
20260504150508 43 234 0.0 2.0 0.03 0.27 0.27 92 1015.5
20260504141058 43 228 2.0 4.0 0.08 0.24 0.24 92 1015.0
20260504140558 43 228 2.0 4.0 0.09 0.24 0.24 92 1015.1
20260504130552 44 193 1.0 4.0 0.07 0.15 0.15 91 1014.7
20260504110533 44 240 3.0 6.0 0.00 0.00 0.00 90 1013.7
20260504100524 45 242 1.0 7.0 0.00 0.00 0.00 91 1013.7
20260504081514 46 280 1.0 5.0 0.00 0.00 0.00 89 1013.7
20260504081020 46 232 2.0 5.0 0.00 0.00 0.00 89 1013.5
20260504080512 47 243 2.0 5.0 0.00 0.00 0.00 88 1013.5
20260504050553 51 246 0.0 0.0 0.00 0.00 0.00 85 1013.4
20260504045552 51 246 0.0 0.0 0.00 0.00 0.00 85 1013.4
20260504045052 51 246 0.0 0.0 0.00 0.00 0.00 85 1013.3
20260504044551 51 246 0.0 0.0 0.00 0.00 0.00 85 1013.2
20260504044050 51 246 0.0 1.0 0.00 0.00 0.00 85 1013.2
20260504043550 51 246 0.0 2.0 0.00 0.00 0.00 84 1013.2
20260504043051 51 247 0.0 2.0 0.00 0.00 0.00 84 1013.1
20260504042550 51 247 0.0 2.0 0.00 0.00 0.00 84 1013.1
20260504042047 51 247 0.0 3.0 0.00 0.00 0.00 84 1013.0
20260504041547 51 244 0.0 3.0 0.00 0.00 0.00 83 1012.9
20260504041046 52 247 0.0 2.0 0.00 0.00 0.00 83 1012.8
20260504040548 52 267 0.0 2.0 0.00 0.00 0.00 83 1012.9
20260504040103 52 266 0.0 2.0 0.00 0.00 0.00 83 1012.7
20260504035547 52 290 0.0 2.0 0.00 0.00 0.00 83 1012.8
20260504035045 52 277 1.0 3.0 0.00 0.00 0.00 82 1012.8
20260504034545 52 279 1.0 4.0 0.00 0.00 0.00 82 1012.7
20260504034043 52 269 1.0 4.0 0.00 0.00 0.00 82 1012.7
20260504033542 52 245 1.0 4.0 0.00 0.00 0.00 82 1012.6
20260504033041 52 248 2.0 5.0 0.00 0.00 0.00 81 1012.5
20260504032541 53 254 2.0 6.0 0.00 0.00 0.00 81 1012.4
20260504032039 53 241 1.0 9.0 0.00 0.00 0.00 81 1012.4
20260504031539 53 229 2.0 9.0 0.00 0.00 0.00 81 1012.4
20260504031038 53 250 2.0 9.0 0.00 0.00 0.00 80 1012.3
20260504030537 53 279 2.0 9.0 0.00 0.00 0.00 80 1012.3
20260504030036 54 261 2.0 7.0 0.00 0.00 0.00 79 1012.3
20260504025536 54 271 2.0 7.0 0.00 0.00 0.00 79 1012.2
20260504025036 54 293 1.0 7.0 0.00 0.00 0.00 78 1011.9
20260504024533 55 298 3.0 6.0 0.00 0.00 0.00 78 1011.7
20260504024033 55 284 2.0 9.0 0.00 0.00 0.00 78 1011.7
20260504023531 55 285 2.0 9.0 0.00 0.00 0.00 78 1011.6
20260504023031 55 294 2.0 9.0 0.00 0.00 0.00 77 1011.6
20260504022533 55 281 3.0 11.0 0.00 0.00 0.00 77 1011.6
20260504022028 55 283 4.0 10.0 0.00 0.00 0.00 77 1011.5
20260504021528 56 254 3.0 11.0 0.00 0.00 0.00 76 1011.4
20260504021026 56 292 4.0 11.0 0.00 0.00 0.00 75 1011.3
20260504020526 56 263 4.0 9.0 0.00 0.00 0.00 75 1011.3
20260504020026 57 261 3.0 12.0 0.00 0.00 0.00 74 1011.4
20260504015526 57 283 4.0 9.0 0.00 0.00 0.00 74 1011.5
20260504015026 57 259 2.0 10.0 0.00 0.00 0.00 74 1011.4